User: anonymous
Location: Wildlife_Club
(35.6000°N, 81.4330°W)
Time: 12:11:32
(UTC-04:00)
Language:

Cosmos 1782 - Orbit

View from above orbital plane
View from above orbital plane
View from above satellite
View from above satellite

Ground track
Ground track

The orbit data is extracted from the following two-line orbital elements,

1 16986U 86074A   14241.46536953  .00001978  00000-0  14466-3 0  8299
2 16986 082.5084 034.4043 0011181 224.3652 135.6678 15.03057393516984
Epoch (UTC): 29 August 2014 11:10:07
Eccentricity: 0.0011181
inclination: 82.5084°
perigee height: 550 km
apogee height: 565 km
right ascension of ascending node: 34.4043°
argument of perigee: 224.3652°
revolutions per day: 15.03057393
mean anomaly at epoch: 135.6678°
orbit number at epoch: 51698

The dashed part of the orbit path shows where the satellite is in the earth's shadow,  

DLR